IRA990T HEPS-OIIE

Flight info

Callsign IRA990T
Flight time N/A
Altitude 39000
Route GODED N134 OSAMA L200 LUDAN/N0442F380 A412 DAXEN/N0444F390 L200 GIBUX R652 RAPLU G202 ILM B411 SAV
Aircraft A343/H-SDE2E3FGHIJ4J5M1RWXY/LB1D1

Departure

Time 2026-05-03 21:05
Airport Port Said International Airport (HEPS)

Arrival

Time N/A
Airport Imam Khomeini International Airport (OIIE)
Time Latitude Longitude Altitude Speed Heading
2026-05-03 20:43 31.27973 32.24351 18 ft 0 kts 339°
2026-05-03 20:57 31.27990 32.24345 18 ft 0 kts 342°
2026-05-03 20:58 31.27991 32.24344 18 ft 0 kts 342°
2026-05-03 20:58 31.27993 32.24344 18 ft 1 kts 349°
2026-05-03 20:58 31.28002 32.24348 17 ft 1 kts 25°
2026-05-03 20:58 31.28006 32.24356 17 ft 1 kts 59°
2026-05-03 20:59 31.28012 32.24377 17 ft 5 kts 70°
2026-05-03 20:59 31.28001 32.24409 18 ft 5 kts 134°
2026-05-03 20:59 31.27966 32.24448 17 ft 6 kts 146°
2026-05-03 20:59 31.27939 32.24445 18 ft 5 kts 186°
2026-05-03 21:00 31.27892 32.24440 18 ft 7 kts 180°
2026-05-03 21:00 31.27878 32.24446 19 ft 7 kts 160°
2026-05-03 21:00 31.27810 32.24488 19 ft 3 kts 110°
2026-05-03 21:00 31.27797 32.24528 19 ft 7 kts 110°
2026-05-03 21:01 31.27773 32.24602 19 ft 12 kts 110°
2026-05-03 21:01 31.27742 32.24710 17 ft 16 kts 106°
2026-05-03 21:01 31.27710 32.24851 17 ft 20 kts 104°
2026-05-03 21:01 31.27670 32.25017 15 ft 23 kts 107°
2026-05-03 21:02 31.27639 32.25153 15 ft 0 kts 79°
2026-05-03 21:02 31.27642 32.25160 15 ft 1 kts 63°
2026-05-03 21:02 31.27650 32.25161 15 ft 1 kts 11°
2026-05-03 21:02 31.27663 32.25146 15 ft 2 kts 291°
2026-05-03 21:03 31.27663 32.25142 15 ft 0 kts 286°
2026-05-03 21:04 31.27687 32.25045 15 ft 41 kts 286°
2026-05-03 21:04 31.27846 32.24399 21 ft 122 kts 285°
2026-05-03 21:05 31.28131 32.23198 28 ft 181 kts 285°
2026-05-03 21:05 31.28483 32.21679 434 ft 209 kts 285°
2026-05-03 21:05 31.28912 32.19872 723 ft 247 kts 285°
2026-05-03 21:05 31.29393 32.17853 1042 ft 267 kts 285°
2026-05-03 21:06 31.29905 32.15698 1421 ft 283 kts 285°
2026-05-03 21:06 31.30445 32.13428 1795 ft 296 kts 285°
2026-05-03 21:06 31.31006 32.11067 2184 ft 307 kts 285°
2026-05-03 21:06 31.31586 32.08627 2561 ft 316 kts 285°
2026-05-03 21:07 31.32182 32.06119 2927 ft 324 kts 285°
2026-05-03 21:07 31.32761 32.03678 3271 ft 294 kts 285°
2026-05-03 21:07 31.33101 32.01506 3868 ft 258 kts 275°
2026-05-03 21:07 31.33272 31.99424 4476 ft 257 kts 275°
2026-05-03 21:08 31.33379 31.97351 5241 ft 252 kts 268°
2026-05-03 21:08 31.33136 31.95344 6123 ft 247 kts 255°
2026-05-03 21:08 31.32595 31.93458 6967 ft 243 kts 251°
2026-05-03 21:08 31.32044 31.91608 7767 ft 240 kts 251°
2026-05-03 21:09 31.31498 31.89776 8537 ft 238 kts 251°
2026-05-03 21:09 31.30951 31.87958 9296 ft 236 kts 250°
2026-05-03 21:09 31.30017 31.86433 10077 ft 231 kts 217°
2026-05-03 21:09 31.28557 31.85872 10903 ft 220 kts 174°
2026-05-03 21:10 31.27633 31.86276 11464 ft 213 kts 143°
2026-05-03 21:10 31.26634 31.87517 12173 ft 210 kts 128°
2026-05-03 21:10 31.25727 31.88862 12763 ft 211 kts 128°
2026-05-03 21:10 31.24819 31.90211 13404 ft 212 kts 128°
2026-05-03 21:11 31.23907 31.91565 14024 ft 212 kts 128°
2026-05-03 21:11 31.22992 31.92926 14646 ft 213 kts 128°
2026-05-03 21:11 31.22072 31.94293 15246 ft 215 kts 128°
2026-05-03 21:11 31.21254 31.95747 15836 ft 216 kts 112°
2026-05-03 21:12 31.21056 31.97466 16420 ft 216 kts 79°
2026-05-03 21:12 31.21624 31.99056 17055 ft 212 kts 66°
2026-05-03 21:12 31.22192 32.00703 17430 ft 224 kts 68°
2026-05-03 21:12 31.22781 32.02430 17884 ft 233 kts 68°
2026-05-03 21:13 31.23387 32.04211 18394 ft 239 kts 68°
2026-05-03 21:13 31.24010 32.06038 18939 ft 245 kts 68°
2026-05-03 21:13 31.24646 32.07903 19524 ft 249 kts 68°
2026-05-03 21:13 31.25291 32.09797 20085 ft 252 kts 68°
2026-05-03 21:14 31.25943 32.11710 20681 ft 255 kts 68°
2026-05-03 21:14 31.26603 32.13644 21270 ft 257 kts 68°
2026-05-03 21:14 31.27266 32.15588 21850 ft 258 kts 68°
2026-05-03 21:14 31.27928 32.17531 22431 ft 258 kts 68°
2026-05-03 21:15 31.28592 32.19478 22989 ft 258 kts 68°
2026-05-03 21:15 31.29257 32.21426 23533 ft 258 kts 68°
2026-05-03 21:15 31.29922 32.23376 24079 ft 258 kts 68°
2026-05-03 21:15 31.30587 32.25325 24588 ft 258 kts 68°
2026-05-03 21:16 31.31255 32.27285 25110 ft 262 kts 68°
2026-05-03 21:16 31.31936 32.29280 25656 ft 266 kts 68°
2026-05-03 21:16 31.32623 32.31296 26207 ft 268 kts 68°
2026-05-03 21:16 31.33318 32.33332 26748 ft 270 kts 68°
2026-05-03 21:17 31.34016 32.35378 27299 ft 271 kts 68°
2026-05-03 21:17 31.34479 32.36737 27661 ft 272 kts 68°
2026-05-03 21:17 31.35418 32.39489 28356 ft 272 kts 68°
2026-05-03 21:17 31.36120 32.41547 28864 ft 273 kts 68°
2026-05-03 21:18 31.36822 32.43605 29360 ft 272 kts 68°
2026-05-03 21:18 31.37525 32.45665 29825 ft 272 kts 68°
2026-05-03 21:18 31.38227 32.47723 30294 ft 272 kts 68°
2026-05-03 21:18 31.38928 32.49777 30744 ft 272 kts 68°
2026-05-03 21:19 31.39620 32.51807 31148 ft 272 kts 68°
2026-05-03 21:19 31.40322 32.53866 31538 ft 273 kts 68°
2026-05-03 21:19 31.41019 32.55944 31892 ft 275 kts 70°
2026-05-03 21:19 31.41658 32.58059 32236 ft 276 kts 71°
2026-05-03 21:20 31.42271 32.60198 32566 ft 278 kts 71°
2026-05-03 21:20 31.42889 32.62351 32881 ft 280 kts 71°
2026-05-03 21:20 31.43523 32.64510 33189 ft 281 kts 71°
2026-05-03 21:20 31.44174 32.66677 33488 ft 283 kts 70°
2026-05-03 21:21 31.44840 32.68857 33772 ft 285 kts 70°
2026-05-03 21:21 31.45522 32.71064 33961 ft 292 kts 70°
2026-05-03 21:21 31.46224 32.73327 34109 ft 299 kts 70°
2026-05-03 21:21 31.46943 32.75643 34267 ft 307 kts 70°
2026-05-03 21:22 31.47680 32.78018 34420 ft 314 kts 70°
2026-05-03 21:22 31.48435 32.80456 34590 ft 322 kts 70°
2026-05-03 21:22 31.49207 32.82950 34749 ft 329 kts 70°
2026-05-03 21:22 31.49995 32.85503 34904 ft 337 kts 70°
2026-05-03 21:23 31.50801 32.88116 35061 ft 345 kts 70°
2026-05-03 21:23 31.51624 32.90790 35227 ft 352 kts 70°
2026-05-03 21:23 31.52464 32.93518 35387 ft 360 kts 70°
2026-05-03 21:23 31.53321 32.96305 35545 ft 367 kts 70°
2026-05-03 21:24 31.54195 32.99149 35702 ft 374 kts 70°
2026-05-03 21:24 31.55085 33.02049 35848 ft 381 kts 70°
2026-05-03 21:24 31.55990 33.05000 36020 ft 388 kts 70°
2026-05-03 21:24 31.56910 33.08004 36172 ft 395 kts 70°
2026-05-03 21:25 31.57844 33.11056 36335 ft 401 kts 70°
2026-05-03 21:25 31.58793 33.14157 36478 ft 407 kts 70°
2026-05-03 21:25 31.59755 33.17306 36658 ft 413 kts 70°
2026-05-03 21:25 31.60726 33.20489 36935 ft 415 kts 70°
2026-05-03 21:26 31.61698 33.23678 37256 ft 416 kts 70°
2026-05-03 21:26 31.62672 33.26876 37581 ft 416 kts 70°
2026-05-03 21:26 31.63646 33.30076 37918 ft 416 kts 70°
2026-05-03 21:26 31.64618 33.33276 38249 ft 417 kts 70°
2026-05-03 21:27 31.65591 33.36481 38567 ft 417 kts 70°
2026-05-03 21:27 31.66561 33.39681 38879 ft 417 kts 70°
2026-05-03 21:27 31.67538 33.42904 38989 ft 419 kts 70°